Tracking 29892 objects as of 21-Nov-2024
HD Live streaming from Space Station
objects crossing your sky now

STARLINK-5097

Track STARLINK-5097 now!
10-day predictions
STARLINK-5097 is classified as:


NORAD ID: 53995
Int'l Code: 2022-125AH
Perigee: 545.8 km
Apogee: 547.9 km
Inclination: 53.2 °
Period: 95.4 minutes
Semi major axis: 6917 km
RCS: Unknown
Launch date: October 5, 2022
Source: United States (US)
Launch site: AIR FORCE WESTERN TEST RANGE (AFWTR)
Your satellite tracking list
Your tracking list is empty




NASA's NSSDC Master Catalog

Two Line Element Set (TLE):
1 53995U 22125AH  24325.87783084 -.00000769  00000-0 -30210-4 0  9998
2 53995  53.2153 181.1045 0001527  90.1816 269.9351 15.08840040118007
Source of the keplerian elements: AFSPC